EZY11BO LGSK-EPWA

Flight info

Callsign EZY11BO
Flight time N/A
Altitude 40000
Route IBIDI L617 AGISA DCT ATFIR DCT LOMOS DCT KENIN DCT LENOV DCT ORTEB DCT KONZI DCT LOGDA
Aircraft B736/M-SDE2E3FGHIRWXY/LB1

Departure

Time 2026-05-08 08:15
Airport Skiathos Island National Airport (LGSK)

Arrival

Time N/A
Airport Warsaw Chopin Airport (EPWA)
Time Latitude Longitude Altitude Speed Heading
2026-05-08 08:09 39.17840 23.50305 35 ft 0 kts 201°
2026-05-08 08:11 39.17830 23.50300 37 ft 3 kts 199°
2026-05-08 08:11 39.17798 23.50286 38 ft 7 kts 199°
2026-05-08 08:11 39.17745 23.50264 38 ft 9 kts 192°
2026-05-08 08:11 39.17699 23.50312 39 ft 10 kts 105°
2026-05-08 08:12 39.17639 23.50334 40 ft 11 kts 196°
2026-05-08 08:12 39.17559 23.50300 39 ft 14 kts 199°
2026-05-08 08:12 39.17457 23.50254 37 ft 18 kts 199°
2026-05-08 08:12 39.17321 23.50194 30 ft 24 kts 198°
2026-05-08 08:13 39.17145 23.50115 21 ft 24 kts 200°
2026-05-08 08:13 39.17059 23.50053 14 ft 15 kts 223°
2026-05-08 08:13 39.17019 23.50074 10 ft 8 kts 79°
2026-05-08 08:13 39.17029 23.50087 11 ft 0 kts 31°
2026-05-08 08:14 39.17038 23.50087 12 ft 6 kts 355°
2026-05-08 08:14 39.17173 23.50129 21 ft 52 kts 19°
2026-05-08 08:14 39.17785 23.50403 37 ft 132 kts 19°
2026-05-08 08:14 39.18797 23.50874 431 ft 161 kts 19°
2026-05-08 08:15 39.19833 23.51338 1334 ft 166 kts 19°
2026-05-08 08:15 39.21013 23.51853 1712 ft 191 kts 17°
2026-05-08 08:15 39.22357 23.52420 2270 ft 207 kts 18°
2026-05-08 08:15 39.23766 23.53033 2914 ft 218 kts 18°
2026-05-08 08:16 39.25228 23.53715 3546 ft 230 kts 24°
2026-05-08 08:16 39.26585 23.54909 4195 ft 243 kts 48°
2026-05-08 08:16 39.27402 23.56699 5281 ft 230 kts 67°
2026-05-08 08:16 39.27832 23.58638 6216 ft 225 kts 97°
2026-05-08 08:17 39.27415 23.60538 7001 ft 221 kts 116°
2026-05-08 08:17 39.26822 23.62392 7755 ft 224 kts 124°
2026-05-08 08:17 39.25735 23.63743 8512 ft 216 kts 158°
2026-05-08 08:17 39.24303 23.64175 9294 ft 212 kts 185°
2026-05-08 08:18 39.22868 23.63803 10064 ft 211 kts 199°
2026-05-08 08:18 39.21471 23.63187 10760 ft 214 kts 201°
2026-05-08 08:18 39.20060 23.62535 11462 ft 216 kts 204°
2026-05-08 08:18 39.18845 23.61430 12158 ft 216 kts 231°
2026-05-08 08:19 39.18134 23.59730 12928 ft 218 kts 253°
2026-05-08 08:19 39.17940 23.57779 13732 ft 221 kts 265°
2026-05-08 08:19 39.18075 23.55793 14413 ft 227 kts 285°
2026-05-08 08:19 39.18896 23.54020 15107 ft 238 kts 309°
2026-05-08 08:20 39.20353 23.52795 15408 ft 272 kts 337°
2026-05-08 08:20 39.22331 23.52362 15627 ft 303 kts 348°
2026-05-08 08:20 39.24506 23.52110 15947 ft 322 kts 350°
2026-05-08 08:20 39.26768 23.51886 16615 ft 328 kts 350°
2026-05-08 08:21 39.29023 23.51659 17428 ft 330 kts 350°
2026-05-08 08:21 39.31321 23.51412 18249 ft 332 kts 349°
2026-05-08 08:21 39.33634 23.51150 18930 ft 336 kts 349°
2026-05-08 08:21 39.35972 23.50875 19614 ft 339 kts 349°
2026-05-08 08:22 39.38335 23.50594 20287 ft 343 kts 349°
2026-05-08 08:22 39.40721 23.50308 20964 ft 346 kts 348°
2026-05-08 08:22 39.43070 23.49692 21464 ft 348 kts 336°
2026-05-08 08:22 39.45403 23.48572 21597 ft 367 kts 333°
2026-05-08 08:23 39.47833 23.47314 21733 ft 385 kts 333°
2026-05-08 08:23 39.50381 23.46011 21857 ft 402 kts 334°
2026-05-08 08:23 39.53036 23.44699 22131 ft 413 kts 334°
2026-05-08 08:23 39.55741 23.43388 22634 ft 416 kts 335°
2026-05-08 08:24 39.58464 23.42076 23223 ft 418 kts 335°
2026-05-08 08:24 39.61197 23.40751 23759 ft 421 kts 334°
2026-05-08 08:24 39.63946 23.39413 24177 ft 424 kts 334°
2026-05-08 08:24 39.66724 23.38058 24607 ft 427 kts 334°
2026-05-08 08:25 39.69515 23.36710 25030 ft 431 kts 336°
2026-05-08 08:25 39.72465 23.35789 25441 ft 442 kts 346°
2026-05-08 08:25 39.75565 23.35529 25869 ft 451 kts 355°
2026-05-08 08:25 39.78723 23.35955 26270 ft 461 kts
2026-05-08 08:26 39.81849 23.36710 26656 ft 465 kts
2026-05-08 08:26 39.85035 23.37556 27035 ft 469 kts
2026-05-08 08:26 39.88239 23.38427 27413 ft 471 kts
2026-05-08 08:26 39.91459 23.39292 27802 ft 474 kts
2026-05-08 08:27 39.94702 23.40144 28180 ft 476 kts
2026-05-08 08:27 39.97962 23.40983 28536 ft 479 kts
2026-05-08 08:27 40.01242 23.41815 28888 ft 482 kts
2026-05-08 08:27 40.04539 23.42645 29244 ft 484 kts
2026-05-08 08:28 40.07861 23.43479 29607 ft 486 kts
2026-05-08 08:28 40.11186 23.44315 30056 ft 485 kts
2026-05-08 08:28 40.14501 23.45151 30111 ft 485 kts
2026-05-08 08:29 40.21131 23.46824 30261 ft 488 kts
2026-05-08 08:29 40.24459 23.47665 30705 ft 487 kts
2026-05-08 08:29 40.27779 23.48507 31208 ft 484 kts
2026-05-08 08:29 40.31083 23.49346 31748 ft 482 kts
2026-05-08 08:30 40.34367 23.50180 32213 ft 481 kts
2026-05-08 08:30 40.37653 23.51014 32621 ft 481 kts
2026-05-08 08:30 40.44217 23.52682 33494 ft 479 kts
2026-05-08 08:31 40.46386 23.53234 33796 ft 478 kts
2026-05-08 08:31 40.50703 23.54336 34346 ft 476 kts
2026-05-08 08:31 40.53954 23.55166 34712 ft 475 kts
2026-05-08 08:31 40.57197 23.55995 35096 ft 473 kts
2026-05-08 08:32 40.59380 23.56554 35349 ft 472 kts
2026-05-08 08:32 40.62560 23.57367 35681 ft 471 kts
2026-05-08 08:32 40.65780 23.58192 35992 ft 471 kts
2026-05-08 08:32 40.69000 23.59016 36320 ft 470 kts
2026-05-08 08:33 40.72213 23.59841 36637 ft 469 kts
2026-05-08 08:33 40.75415 23.60663 36954 ft 468 kts
2026-05-08 08:33 40.78621 23.61487 37143 ft 471 kts
2026-05-08 08:33 40.81850 23.62314 37122 ft 474 kts
2026-05-08 08:34 40.88310 23.63981 37115 ft 470 kts
2026-05-08 08:34 40.94688 23.65633 37122 ft 466 kts
2026-05-08 08:35 41.01016 23.67268 37126 ft 465 kts
2026-05-08 08:35 41.07376 23.68916 37124 ft 466 kts
2026-05-08 08:36 41.13744 23.70569 37127 ft 466 kts
2026-05-08 08:36 41.20127 23.72231 37121 ft 467 kts
2026-05-08 08:37 41.26533 23.73902 37371 ft 470 kts
2026-05-08 08:37 41.29722 23.74738 37821 ft 465 kts
2026-05-08 08:37 41.32861 23.75560 38156 ft 463 kts
2026-05-08 08:38 41.36027 23.76388 38407 ft 464 kts
2026-05-08 08:38 41.39197 23.77040 38648 ft 458 kts 357°
2026-05-08 08:38 41.42350 23.77095 38968 ft 447 kts 348°
2026-05-08 08:38 41.45405 23.76570 39184 ft 442 kts 344°
2026-05-08 08:39 41.48441 23.75919 39319 ft 442 kts 343°
2026-05-08 08:39 41.51477 23.75239 39440 ft 443 kts 343°
2026-05-08 08:39 41.54524 23.74557 39551 ft 443 kts 344°
2026-05-08 08:39 41.57566 23.73888 39750 ft 443 kts 344°
2026-05-08 08:40 41.60603 23.73234 39957 ft 442 kts 344°
2026-05-08 08:40 41.63645 23.72588 40099 ft 443 kts 345°
2026-05-08 08:40 41.69726 23.71309 40119 ft 445 kts 345°
2026-05-08 08:41 41.75840 23.70031 40127 ft 444 kts 345°
2026-05-08 08:41 41.81939 23.68752 40122 ft 443 kts 345°
2026-05-08 08:42 41.88018 23.67473 40108 ft 441 kts 345°
2026-05-08 08:42 41.94078 23.66196 40115 ft 440 kts 345°
2026-05-08 08:43 42.00127 23.64918 40122 ft 440 kts 345°
2026-05-08 08:43 42.06133 23.63642 40125 ft 439 kts 345°
2026-05-08 08:44 42.12192 23.62357 40114 ft 441 kts 345°
2026-05-08 08:44 42.18292 23.61060 40094 ft 444 kts 345°
2026-05-08 08:45 42.24399 23.59761 40113 ft 445 kts 345°
2026-05-08 08:45 42.29489 23.58676 40114 ft 445 kts 345°
2026-05-08 08:46 42.34263 23.57657 40105 ft 446 kts 345°
2026-05-08 08:46 42.40403 23.56345 40106 ft 447 kts 345°
2026-05-08 08:47 42.46545 23.55028 40094 ft 447 kts 345°
2026-05-08 08:47 42.52682 23.53711 40104 ft 446 kts 345°
2026-05-08 08:48 42.58822 23.52389 40103 ft 446 kts 345°
2026-05-08 08:48 42.64949 23.51068 40103 ft 445 kts 345°
2026-05-08 08:49 42.71065 23.49746 40107 ft 445 kts 345°
2026-05-08 08:49 42.77145 23.48429 40108 ft 445 kts 345°
2026-05-08 08:50 42.83273 23.47099 40102 ft 445 kts 345°
2026-05-08 08:50 42.89382 23.45771 40100 ft 444 kts 345°
2026-05-08 08:51 42.95488 23.44442 40086 ft 444 kts 345°
2026-05-08 08:51 43.01591 23.43109 40093 ft 444 kts 345°
2026-05-08 08:52 43.07662 23.41780 40086 ft 444 kts 345°
2026-05-08 08:52 43.13766 23.40443 40078 ft 443 kts 345°
2026-05-08 08:53 43.19845 23.39107 40063 ft 440 kts 345°
2026-05-08 08:53 43.25893 23.37777 40080 ft 440 kts 345°
2026-05-08 08:54 43.31951 23.36441 40065 ft 441 kts 345°
2026-05-08 08:54 43.38021 23.35099 40073 ft 442 kts 345°
2026-05-08 08:55 43.44097 23.33754 40055 ft 443 kts 345°
2026-05-08 08:55 43.50180 23.32405 40061 ft 443 kts 345°
2026-05-08 08:56 43.56274 23.31050 40065 ft 443 kts 345°
2026-05-08 08:56 43.62327 23.29702 40064 ft 444 kts 345°
2026-05-08 08:57 43.68429 23.28340 40061 ft 444 kts 345°
2026-05-08 08:57 43.74532 23.26975 40060 ft 444 kts 345°
2026-05-08 08:58 43.80647 23.25604 40064 ft 444 kts 345°
2026-05-08 08:58 43.86696 23.24176 40061 ft 443 kts 343°
2026-05-08 08:59 43.92746 23.22534 40058 ft 442 kts 343°
2026-05-08 08:59 43.98784 23.20861 40062 ft 442 kts 343°
2026-05-08 09:00 44.04822 23.19207 40064 ft 442 kts 343°
2026-05-08 09:00 44.10866 23.17563 40059 ft 442 kts 343°
2026-05-08 09:01 44.16910 23.15921 40060 ft 442 kts 343°
2026-05-08 09:01 44.22961 23.14274 40058 ft 442 kts 343°
2026-05-08 09:02 44.29005 23.12625 40053 ft 443 kts 343°
2026-05-08 09:02 44.35050 23.10972 40061 ft 442 kts 343°
2026-05-08 09:03 44.41054 23.09327 40055 ft 442 kts 343°
2026-05-08 09:03 44.47101 23.07667 40060 ft 443 kts 343°
2026-05-08 09:04 44.53152 23.06001 40053 ft 443 kts 343°
2026-05-08 09:04 44.59202 23.04333 40055 ft 443 kts 343°
2026-05-08 09:05 44.65252 23.02661 40051 ft 443 kts 343°
2026-05-08 09:05 44.71309 23.00984 40054 ft 443 kts 343°
2026-05-08 09:06 44.77372 22.99301 40052 ft 444 kts 343°
2026-05-08 09:06 44.83430 22.97616 40056 ft 444 kts 343°
2026-05-08 09:07 44.89495 22.95925 40053 ft 445 kts 343°
2026-05-08 09:07 44.95570 22.94229 40053 ft 444 kts 343°
2026-05-08 09:08 45.01640 22.92531 40060 ft 444 kts 343°
2026-05-08 09:08 45.07668 22.90840 40063 ft 444 kts 343°
2026-05-08 09:09 45.13739 22.89133 40068 ft 444 kts 343°
2026-05-08 09:09 45.19806 22.87423 40062 ft 444 kts 343°
2026-05-08 09:10 45.25858 22.85714 40064 ft 444 kts 343°
2026-05-08 09:10 45.31883 22.84009 40071 ft 444 kts 343°
2026-05-08 09:11 45.37948 22.82289 40070 ft 444 kts 343°
2026-05-08 09:11 45.44019 22.80565 40063 ft 444 kts 343°
2026-05-08 09:12 45.50073 22.78843 40065 ft 443 kts 343°
2026-05-08 09:12 45.56114 22.77116 40073 ft 442 kts 343°
2026-05-08 09:13 45.62160 22.75385 40078 ft 443 kts 343°
2026-05-08 09:13 45.68221 22.73647 40074 ft 444 kts 343°
2026-05-08 09:14 45.74284 22.71905 40075 ft 445 kts 343°
2026-05-08 09:14 45.80322 22.70166 40067 ft 446 kts 343°
2026-05-08 09:15 45.86412 22.68408 40076 ft 447 kts 343°
2026-05-08 09:15 45.92513 22.66643 40068 ft 448 kts 343°
2026-05-08 09:16 45.98636 22.64868 40081 ft 449 kts 343°
2026-05-08 09:16 46.04773 22.63085 40076 ft 451 kts 344°
2026-05-08 09:17 46.10934 22.61291 40072 ft 451 kts 344°
2026-05-08 09:17 46.17093 22.59493 40084 ft 451 kts 344°
2026-05-08 09:18 46.23243 22.57695 40090 ft 451 kts 344°
2026-05-08 09:18 46.29363 22.55900 40084 ft 452 kts 344°
2026-05-08 09:19 46.35521 22.54090 40078 ft 452 kts 344°
2026-05-08 09:19 46.41687 22.52274 40088 ft 451 kts 344°
2026-05-08 09:20 46.47851 22.50454 40084 ft 452 kts 344°
2026-05-08 09:20 46.52970 22.48939 40080 ft 452 kts 344°
2026-05-08 09:21 46.59135 22.47111 40079 ft 452 kts 343°
2026-05-08 09:23 46.80709 22.40680 40082 ft 452 kts 343°
2026-05-08 09:23 46.86886 22.38829 40082 ft 453 kts 343°
2026-05-08 09:24 46.93061 22.36974 40083 ft 453 kts 343°
2026-05-08 09:24 46.99196 22.35127 40078 ft 453 kts 343°
2026-05-08 09:25 47.05376 22.33262 40077 ft 453 kts 343°
2026-05-08 09:25 47.11554 22.31394 40081 ft 453 kts 343°
2026-05-08 09:26 47.17735 22.29520 40078 ft 454 kts 343°
2026-05-08 09:26 47.23915 22.27641 40074 ft 454 kts 343°
2026-05-08 09:27 47.30107 22.25755 40073 ft 454 kts 343°
2026-05-08 09:27 47.36292 22.23867 40075 ft 454 kts 343°
2026-05-08 09:28 47.42473 22.21974 40073 ft 454 kts 343°
2026-05-08 09:28 47.48658 22.20076 40067 ft 454 kts 343°
2026-05-08 09:29 47.54844 22.18174 40070 ft 453 kts 343°
2026-05-08 09:29 47.61019 22.16270 40066 ft 453 kts 343°
2026-05-08 09:30 47.67151 22.14375 40066 ft 453 kts 343°
2026-05-08 09:30 47.73328 22.12461 40067 ft 453 kts 343°
2026-05-08 09:31 47.79496 22.10545 40070 ft 453 kts 343°
2026-05-08 09:31 47.85667 22.08624 40066 ft 453 kts 344°
2026-05-08 09:32 47.91833 22.06699 40067 ft 453 kts 344°
2026-05-08 09:32 47.98007 22.04768 40067 ft 453 kts 344°
2026-05-08 09:33 48.04144 22.02843 40068 ft 453 kts 344°
2026-05-08 09:33 48.10319 22.00902 40065 ft 454 kts 344°
2026-05-08 09:34 48.16504 21.98952 40059 ft 454 kts 344°
2026-05-08 09:34 48.22694 21.96997 40055 ft 455 kts 344°
2026-05-08 09:35 48.28883 21.95036 40050 ft 455 kts 344°
2026-05-08 09:35 48.35058 21.92917 40046 ft 452 kts 338°
2026-05-08 09:36 48.40641 21.88845 40058 ft 444 kts 324°
2026-05-08 09:36 48.45861 21.83936 40046 ft 445 kts 324°
2026-05-08 09:37 48.51106 21.78981 40049 ft 445 kts 324°
2026-05-08 09:37 48.56382 21.74054 40046 ft 446 kts 324°
2026-05-08 09:38 48.61671 21.69136 40055 ft 447 kts 324°
2026-05-08 09:38 48.66961 21.64213 40062 ft 447 kts 324°
2026-05-08 09:39 48.72255 21.59272 40060 ft 447 kts 324°
2026-05-08 09:39 48.77550 21.54316 40066 ft 447 kts 324°
2026-05-08 09:40 48.82845 21.49347 40068 ft 447 kts 324°
2026-05-08 09:40 48.88139 21.44366 40058 ft 448 kts 324°
2026-05-08 09:41 48.93436 21.39369 40065 ft 448 kts 324°
2026-05-08 09:41 48.98693 21.34399 40064 ft 447 kts 324°
2026-05-08 09:42 49.03978 21.29389 40062 ft 447 kts 324°
2026-05-08 09:42 49.09260 21.24368 40062 ft 447 kts 324°
2026-05-08 09:43 49.14537 21.19340 40064 ft 447 kts 324°
2026-05-08 09:43 49.19814 21.14299 40086 ft 446 kts 324°
2026-05-08 09:44 49.25081 21.09254 40076 ft 447 kts 324°
2026-05-08 09:44 49.30349 21.04196 40079 ft 447 kts 324°
2026-05-08 09:45 49.35816 20.99613 40082 ft 452 kts 335°
2026-05-08 09:45 49.41698 20.96286 40082 ft 454 kts 337°
2026-05-08 09:46 49.47655 20.93024 40079 ft 454 kts 336°
2026-05-08 09:46 49.53596 20.89693 40090 ft 455 kts 336°
2026-05-08 09:47 49.59540 20.86303 40096 ft 455 kts 336°
2026-05-08 09:47 49.65484 20.82894 40091 ft 456 kts 336°
2026-05-08 09:48 49.71431 20.79476 40099 ft 456 kts 336°
2026-05-08 09:48 49.77351 20.76066 40093 ft 457 kts 336°
2026-05-08 09:49 49.83316 20.72622 40103 ft 458 kts 336°
2026-05-08 09:49 49.89291 20.69164 40103 ft 458 kts 336°
2026-05-08 09:50 49.95263 20.65697 40100 ft 458 kts 336°
2026-05-08 09:50 50.01243 20.62217 40105 ft 459 kts 336°
2026-05-08 09:51 50.07219 20.58767 40098 ft 460 kts 340°
2026-05-08 09:51 50.13576 20.57161 40101 ft 466 kts 358°
2026-05-08 09:52 50.20065 20.57785 40023 ft 470 kts
2026-05-08 09:52 50.23339 20.58203 39772 ft 472 kts
2026-05-08 09:52 50.26601 20.58606 39550 ft 469 kts
2026-05-08 09:52 50.29851 20.58982 39330 ft 468 kts
2026-05-08 09:53 50.33102 20.59335 39107 ft 468 kts
2026-05-08 09:53 50.36309 20.59671 38901 ft 468 kts
2026-05-08 09:53 50.39567 20.60006 38661 ft 468 kts
2026-05-08 09:53 50.42818 20.60340 38209 ft 468 kts
2026-05-08 09:54 50.46078 20.60677 37562 ft 467 kts
2026-05-08 09:54 50.49316 20.61015 36870 ft 466 kts
2026-05-08 09:54 50.52550 20.61352 36204 ft 466 kts
2026-05-08 09:54 50.55776 20.61690 35517 ft 466 kts
2026-05-08 09:55 50.59026 20.62029 34758 ft 468 kts
2026-05-08 09:55 50.62283 20.62369 33929 ft 470 kts
2026-05-08 09:55 50.65557 20.62711 33012 ft 472 kts
2026-05-08 09:55 50.68799 20.63050 32140 ft 472 kts
2026-05-08 09:56 50.72077 20.63394 31256 ft 472 kts
2026-05-08 09:56 50.75348 20.63738 30351 ft 473 kts
2026-05-08 09:56 50.78651 20.64086 29259 ft 474 kts
2026-05-08 09:56 50.81941 20.64433 28453 ft 469 kts
2026-05-08 09:57 50.88349 20.65113 27042 ft 455 kts
2026-05-08 09:57 50.91491 20.65446 26353 ft 449 kts
2026-05-08 09:57 50.94596 20.65776 25692 ft 444 kts
2026-05-08 09:58 50.97662 20.66100 25044 ft 439 kts
2026-05-08 09:58 51.00695 20.66422 24414 ft 434 kts
2026-05-08 09:58 51.03695 20.66741 23786 ft 430 kts
2026-05-08 09:58 51.06675 20.67058 23045 ft 427 kts
2026-05-08 09:59 51.09590 20.67369 22364 ft 422 kts
2026-05-08 09:59 51.12506 20.67680 21736 ft 417 kts
2026-05-08 09:59 51.15384 20.67988 21105 ft 412 kts
2026-05-08 09:59 51.18231 20.68293 20494 ft 408 kts
2026-05-08 10:00 51.21052 20.68595 19889 ft 404 kts
2026-05-08 10:00 51.23839 20.68894 19339 ft 399 kts
2026-05-08 10:00 51.26556 20.69187 19207 ft 383 kts
2026-05-08 10:00 51.29161 20.69641 18945 ft 374 kts 11°
2026-05-08 10:01 51.31647 20.70849 18588 ft 372 kts 18°
2026-05-08 10:01 51.34088 20.72227 18189 ft 371 kts 18°
2026-05-08 10:01 51.36520 20.73614 17769 ft 370 kts 18°
2026-05-08 10:01 51.38947 20.74972 17371 ft 369 kts 18°
2026-05-08 10:02 51.41378 20.76300 16988 ft 369 kts 17°
2026-05-08 10:02 51.43812 20.77612 16602 ft 368 kts 17°
2026-05-08 10:02 51.46243 20.78918 16221 ft 368 kts 17°
2026-05-08 10:02 51.48663 20.80217 15846 ft 367 kts 17°
2026-05-08 10:03 51.51080 20.81517 15468 ft 366 kts 17°
2026-05-08 10:03 51.53486 20.82814 15098 ft 364 kts 17°
2026-05-08 10:03 51.55879 20.84105 14729 ft 361 kts 17°
2026-05-08 10:03 51.58246 20.85385 14365 ft 357 kts 17°
2026-05-08 10:04 51.60588 20.86652 13996 ft 352 kts 17°
2026-05-08 10:04 51.62902 20.87904 13607 ft 349 kts 17°
2026-05-08 10:04 51.65200 20.89149 13221 ft 347 kts 17°
2026-05-08 10:04 51.67446 20.90368 12852 ft 344 kts 18°
2026-05-08 10:05 51.69707 20.91585 12494 ft 341 kts 17°
2026-05-08 10:05 51.71942 20.92755 12136 ft 334 kts 17°
2026-05-08 10:05 51.74135 20.93898 11796 ft 328 kts 17°
2026-05-08 10:05 51.76303 20.94924 11451 ft 322 kts
2026-05-08 10:06 51.78479 20.94836 11120 ft 306 kts 346°
2026-05-08 10:06 51.80422 20.93623 10837 ft 295 kts 331°
2026-05-08 10:06 51.82234 20.92094 10544 ft 293 kts 330°
2026-05-08 10:06 51.83426 20.91074 10349 ft 292 kts 330°
2026-05-08 10:07 51.85804 20.89064 10137 ft 292 kts 330°
2026-05-08 10:07 51.87639 20.87528 9703 ft 306 kts 330°
2026-05-08 10:07 51.89533 20.85950 9306 ft 304 kts 330°
2026-05-08 10:07 51.91403 20.84394 8971 ft 299 kts 330°
2026-05-08 10:08 51.92625 20.83379 8748 ft 296 kts 330°
2026-05-08 10:08 51.94443 20.81866 8455 ft 291 kts 330°
2026-05-08 10:08 51.96337 20.80891 8137 ft 284 kts 354°
2026-05-08 10:08 51.98242 20.81330 7876 ft 275 kts 20°
2026-05-08 10:09 51.99825 20.82958 7614 ft 266 kts 42°
2026-05-08 10:09 52.00906 20.85313 7350 ft 257 kts 60°
2026-05-08 10:09 52.01727 20.87849 7102 ft 251 kts 63°
2026-05-08 10:09 52.02179 20.90589 6779 ft 255 kts 91°
2026-05-08 10:10 52.01732 20.93325 6519 ft 251 kts 123°
2026-05-08 10:10 52.00539 20.95329 6261 ft 246 kts 148°
2026-05-08 10:10 51.99068 20.96715 6000 ft 244 kts 154°
2026-05-08 10:10 51.97569 20.97986 5729 ft 243 kts 154°
2026-05-08 10:11 51.96095 20.99245 5484 ft 242 kts 154°
2026-05-08 10:11 51.94605 21.00536 5233 ft 243 kts 153°
2026-05-08 10:11 51.93121 21.01831 4988 ft 239 kts 153°
2026-05-08 10:11 51.91685 21.03075 4855 ft 232 kts 153°
2026-05-08 10:12 51.90267 21.04300 4723 ft 229 kts 153°
2026-05-08 10:12 51.88931 21.05674 4579 ft 229 kts 135°
2026-05-08 10:12 51.88196 21.07918 4475 ft 228 kts 99°
2026-05-08 10:12 51.88345 21.10437 4375 ft 226 kts 68°
2026-05-08 10:13 51.89010 21.12728 4278 ft 225 kts 60°
2026-05-08 10:13 51.89771 21.14952 4151 ft 226 kts 56°
2026-05-08 10:13 51.90904 21.16653 4016 ft 222 kts 23°
2026-05-08 10:13 51.92378 21.17145 4007 ft 215 kts 355°
2026-05-08 10:14 51.93785 21.16528 3981 ft 207 kts 334°
2026-05-08 10:14 51.95083 21.15469 3738 ft 206 kts 330°
2026-05-08 10:14 51.96330 21.14388 3602 ft 200 kts 330°
2026-05-08 10:14 51.97524 21.13335 3479 ft 190 kts 332°
2026-05-08 10:15 51.98686 21.12368 3375 ft 186 kts 332°
2026-05-08 10:15 51.99815 21.11405 3305 ft 182 kts 331°
2026-05-08 10:15 52.00927 21.10438 3208 ft 180 kts 331°
2026-05-08 10:15 52.02029 21.09476 3083 ft 182 kts 331°
2026-05-08 10:16 52.03148 21.08493 3012 ft 183 kts 331°
2026-05-08 10:16 52.04270 21.07504 2925 ft 184 kts 331°